| ตารางข้อมูล | ค้นข้อมูล1 | ค้นข้อมูล2 | ค่าสูงสุด-ต่ำสุด |  

Select Sensor -->| 20402 | 4529A | 4529C | 4529D | 4529E | 4529F | 89M1A | 89M1B | หน้าจอย่อ | 4529 |
ข้อมูลรวม (ยังไม่ได้เลือก Sensor)

IDDate TimeRoom  Temp  Humidity RSSI Time
 1057496  2026-05-07 06:04:53  20402  30.8 °C  54.7 %   06:04 
 1057495  2026-05-07 06:04:30  4529A  31.6 °C  49.0 %   06:04 
 1057494  2026-05-07 06:02:20  89M1B  33.2 °C  67.2 %   06:02 
 1057493  2026-05-07 06:00:00  4529C  29.4 °C  49.1 %   06:00 
 1057492  2026-05-07 05:59:07  4529D  29.9 °C  78.1 %   05:59 
 1057491  2026-05-07 05:54:43  20402  30.8 °C  55.0 %   05:54 
 1057490  2026-05-07 05:54:14  4529A  31.6 °C  49.6 %   05:54 
 1057489  2026-05-07 05:52:42  89M1B  33.4 °C  67.2 %   05:52 
 1057488  2026-05-07 05:49:48  4529C  28.9 °C  49.5 %   05:49 
 1057487  2026-05-07 05:49:35  4529D  29.9 °C  77.7 %   05:49 
 1057486  2026-05-07 05:44:33  20402  30.8 °C  55.0 %   05:44 
 1057485  2026-05-07 05:44:03  4529A  31.8 °C  50.0 %   05:44 
 1057484  2026-05-07 05:43:03  89M1B  33.4 °C  67.3 %   05:43 
 1057483  2026-05-07 05:40:02  4529D  29.9 °C  77.8 %   05:40 
 1057482  2026-05-07 05:39:36  4529C  27.3 °C  52.5 %   05:39 
 1057481  2026-05-07 05:34:21  20402  30.8 °C  54.8 %   05:34 
 1057480  2026-05-07 05:33:50  4529A  31.6 °C  49.4 %   05:33 
 1057479  2026-05-07 05:33:25  89M1B  33.5 °C  67.0 %   05:33 
 1057478  2026-05-07 05:30:29  4529D  29.9 °C  77.7 %   05:30 
 1057477  2026-05-07 05:29:24  4529C  26.6 °C  49.2 %   05:29 
 1057476  2026-05-07 05:24:11  20402  30.8 °C  54.8 %   05:24 
 1057475  2026-05-07 05:23:46  89M1B  33.4 °C  67.1 %   05:23 
 1057474  2026-05-07 05:23:38  4529A  31.6 °C  48.6 %   05:23 
 1057473  2026-05-07 05:20:56  4529D  30.0 °C  77.7 %   05:20 
 1057472  2026-05-07 05:19:11  4529C  26.6 °C  49.3 %   05:19 
 1057471  2026-05-07 05:14:07  89M1B  33.5 °C  67.4 %   05:14 
 1057470  2026-05-07 05:13:58  20402  30.8 °C  54.8 %   05:13 
 1057469  2026-05-07 05:13:25  4529A  31.6 °C  47.8 %   05:13 
 1057468  2026-05-07 05:11:24  4529D  29.9 °C  77.6 %   05:11 
 1057467  2026-05-07 05:08:56  4529C  26.6 °C  49.5 %   05:08 
 1057466  2026-05-07 05:04:28  89M1B  33.6 °C  67.2 %   05:04 
 1057465  2026-05-07 05:03:49  20402  30.8 °C  54.8 %   05:03 
 1057464  2026-05-07 05:03:13  4529A  31.7 °C  48.0 %   05:03 
 1057463  2026-05-07 05:01:50  4529D  30.0 °C  77.6 %   05:01 
 1057462  2026-05-07 04:58:44  4529C  26.6 °C  49.6 %   04:58 
 1057461  2026-05-07 04:54:50  89M1B  33.6 °C  67.6 %   04:54 
 1057460  2026-05-07 04:53:36  20402  30.8 °C  54.6 %   04:53 
 1057459  2026-05-07 04:53:00  4529A  31.7 °C  48.7 %   04:53 
 1057458  2026-05-07 04:52:18  4529D  30.0 °C  77.5 %   04:52 
 1057457  2026-05-07 04:48:28  4529C  27.1 °C  50.2 %   04:48 
 1057456  2026-05-07 04:45:12  89M1B  33.6 °C  67.5 %   04:45 
 1057455  2026-05-07 04:43:26  20402  30.8 °C  54.4 %   04:43 
 1057454  2026-05-07 04:42:47  4529A  31.7 °C  48.3 %   04:42 
 1057453  2026-05-07 04:42:45  4529D  30.1 °C  77.6 %   04:42 
 1057452  2026-05-07 04:38:16  4529C  26.9 °C  50.1 %   04:38 
 1057451  2026-05-07 04:35:33  89M1B  33.7 °C  67.3 %   04:35 
 1057450  2026-05-07 04:33:17  20402  30.8 °C  54.5 %   04:33 
 1057449  2026-05-07 04:33:11  4529D  30.1 °C  77.6 %   04:33 
 1057448  2026-05-07 04:32:35  4529A  31.6 °C  47.6 %   04:32 
 1057447  2026-05-07 04:28:03  4529C  26.8 °C  49.4 %   04:28 
 1057446  2026-05-07 04:25:54  89M1B  33.6 °C  66.9 %   04:25 
 1057445  2026-05-07 04:23:39  4529D  30.1 °C  77.6 %   04:23 
 1057444  2026-05-07 04:23:05  20402  30.8 °C  54.4 %   04:23 
 1057443  2026-05-07 04:22:23  4529A  31.6 °C  46.8 %   04:22 
 1057442  2026-05-07 04:17:50  4529C  27.2 °C  49.4 %   04:17 
 1057441  2026-05-07 04:16:16  89M1B  33.7 °C  66.9 %   04:16 
 1057440  2026-05-07 04:14:07  4529D  30.1 °C  77.7 %   04:14 
 1057439  2026-05-07 04:12:55  20402  30.8 °C  54.2 %   04:12 
 1057438  2026-05-07 04:12:10  4529A  31.6 °C  48.5 %   04:12 
 1057437  2026-05-07 04:07:38  4529C  27.1 °C  47.4 %   04:07 
 1057436  2026-05-07 04:06:37  89M1B  33.7 °C  66.7 %   04:06 
 1057435  2026-05-07 04:04:34  4529D  30.1 °C  77.6 %   04:04 
 1057434  2026-05-07 04:02:46  20402  30.9 °C  54.2 %   04:02 
 1057433  2026-05-07 04:01:57  4529A  31.6 °C  47.9 %   04:01 
 1057432  2026-05-07 03:57:26  4529C  27.1 °C  47.4 %   03:57 
 1057431  2026-05-07 03:56:58  89M1B  33.6 °C  66.5 %   03:56 
 1057430  2026-05-07 03:55:02  4529D  30.2 °C  77.7 %   03:55 
 1057429  2026-05-07 03:52:36  20402  31.0 °C  54.0 %   03:52 
 1057428  2026-05-07 03:51:43  4529A  31.5 °C  46.9 %   03:51 
 1057427  2026-05-07 03:47:19  89M1B  33.9 °C  66.3 %   03:47 
 1057426  2026-05-07 03:47:12  4529C  26.8 °C  46.3 %   03:47 
 1057425  2026-05-07 03:45:29  4529D  30.2 °C  77.7 %   03:45 
 1057424  2026-05-07 03:42:26  20402  30.9 °C  54.1 %   03:42 
 1057423  2026-05-07 03:41:31  4529A  31.7 °C  47.1 %   03:41 
 1057422  2026-05-07 03:37:41  89M1B  33.8 °C  65.9 %   03:37 
 1057421  2026-05-07 03:36:59  4529C  26.8 °C  45.6 %   03:36 
 1057420  2026-05-07 03:35:56  4529D  30.2 °C  77.6 %   03:35 
 1057419  2026-05-07 03:32:16  20402  31.0 °C  53.4 %   03:32 
 1057418  2026-05-07 03:31:19  4529A  31.6 °C  47.2 %   03:31 
 1057417  2026-05-07 03:28:01  89M1B  33.9 °C  65.9 %   03:28 
 1057416  2026-05-07 03:26:47  4529C  26.3 °C  44.7 %   03:26 
 1057415  2026-05-07 03:26:23  4529D  30.2 °C  77.8 %   03:26 
 1057414  2026-05-07 03:22:07  20402  30.9 °C  53.3 %   03:22 
 1057413  2026-05-07 03:21:05  4529A  32.0 °C  46.9 %   03:21 
 1057412  2026-05-07 03:18:22  89M1B  33.9 °C  65.8 %   03:18 
 1057411  2026-05-07 03:16:50  4529D  30.3 °C  77.7 %   03:16 
 1057410  2026-05-07 03:16:35  4529C  26.3 °C  45.1 %   03:16 
 1057409  2026-05-07 03:11:57  20402  31.0 °C  53.4 %   03:11 
 1057408  2026-05-07 03:10:51  4529A  31.7 °C  45.5 %   03:10 
 1057407  2026-05-07 03:08:43  89M1B  34.1 °C  65.9 %   03:08 
 1057406  2026-05-07 03:07:16  4529D  30.3 °C  77.8 %   03:07 
 1057405  2026-05-07 03:06:23  4529C  26.3 °C  44.9 %   03:06 
 1057404  2026-05-07 03:01:44  20402  31.0 °C  53.2 %   03:01 
 1057403  2026-05-07 03:00:40  4529A  31.8 °C  47.4 %   03:00 
 1057402  2026-05-07 02:59:05  89M1B  34.1 °C  65.9 %   02:59 
 1057401  2026-05-07 02:57:44  4529D  30.3 °C  77.8 %   02:57 
 1057400  2026-05-07 02:56:09  4529C  26.3 °C  47.8 %   02:56 
 1057399  2026-05-07 02:51:32  20402  31.0 °C  52.8 %   02:51 
 1057398  2026-05-07 02:50:29  4529A  31.7 °C  46.9 %   02:50 
 1057397  2026-05-07 02:49:26  89M1B  34.1 °C  66.0 %   02:49 
 1057396  2026-05-07 02:48:09  4529D  30.3 °C  77.8 %   02:48 
 1057395  2026-05-07 02:45:58  4529C  26.7 °C  47.6 %   02:45 
 1057394  2026-05-07 02:41:23  20402  31.0 °C  52.8 %   02:41 
 1057393  2026-05-07 02:40:17  4529A  31.8 °C  46.0 %   02:40 
 1057392  2026-05-07 02:39:48  89M1B  34.1 °C  66.0 %   02:39 
 1057391  2026-05-07 02:38:36  4529D  30.3 °C  77.8 %   02:38 
 1057390  2026-05-07 02:35:44  4529C  26.8 °C  47.7 %   02:35 
 1057389  2026-05-07 02:31:11  20402  31.0 °C  52.5 %   02:31 
 1057388  2026-05-07 02:30:09  89M1B  34.4 °C  65.9 %   02:30 
 1057387  2026-05-07 02:30:05  4529A  31.8 °C  46.2 %   02:30 
 1057386  2026-05-07 02:29:03  4529D  30.3 °C  77.9 %   02:29 
 1057385  2026-05-07 02:25:31  4529C  27.1 °C  48.5 %   02:25 
 1057384  2026-05-07 02:21:01  20402  31.1 °C  52.5 %   02:21 
 1057383  2026-05-07 02:20:30  89M1B  34.2 °C  65.7 %   02:20 
 1057382  2026-05-07 02:19:50  4529A  31.8 °C  46.6 %   02:19 
 1057381  2026-05-07 02:19:31  4529D  30.4 °C  77.9 %   02:19 
 1057380  2026-05-07 02:15:19  4529C  27.2 °C  48.5 %   02:15 
 1057379  2026-05-07 02:10:52  89M1B  34.4 °C  65.6 %   02:10 
 1057378  2026-05-07 02:10:51  20402  31.0 °C  52.0 %   02:10 
 1057377  2026-05-07 02:09:59  4529D  30.4 °C  78.0 %   02:09 
 1057376  2026-05-07 02:09:38  4529A  31.8 °C  46.1 %   02:09 
 1057375  2026-05-07 02:05:04  4529C  27.4 °C  48.3 %   02:05 
 1057374  2026-05-07 02:01:13  89M1B  34.4 °C  65.2 %   02:01 
 1057373  2026-05-07 02:00:41  20402  31.1 °C  51.1 %   02:00 
 1057372  2026-05-07 02:00:26  4529D  30.4 °C  78.0 %   02:00 
 1057371  2026-05-07 01:59:26  4529A  31.9 °C  47.3 %   01:59 
 1057370  2026-05-07 01:54:51  4529C  27.6 °C  47.9 %   01:54 
 1057369  2026-05-07 01:51:34  89M1B  34.4 °C  65.2 %   01:51 
 1057368  2026-05-07 01:50:53  4529D  30.5 °C  78.1 %   01:50 
 1057367  2026-05-07 01:50:31  20402  31.1 °C  51.0 %   01:50 
 1057366  2026-05-07 01:49:14  4529A  31.7 °C  46.7 %   01:49 
 1057365  2026-05-07 01:44:39  4529C  27.6 °C  48.2 %   01:44 
 1057364  2026-05-07 01:41:55  89M1B  34.4 °C  65.0 %   01:41 
 1057363  2026-05-07 01:41:21  4529D  30.5 °C  78.1 %   01:41 
 1057362  2026-05-07 01:40:21  20402  31.1 °C  51.0 %   01:40 
 1057361  2026-05-07 01:39:01  4529A  31.8 °C  45.4 %   01:39 
 1057360  2026-05-07 01:34:26  4529C  27.6 °C  46.5 %   01:34 
 1057359  2026-05-07 01:32:17  89M1B  34.4 °C  65.0 %   01:32 
 1057358  2026-05-07 01:31:48  4529D  30.5 °C  78.1 %   01:31 
 1057357  2026-05-07 01:30:09  20402  31.1 °C  50.2 %   01:30 
 1057356  2026-05-07 01:28:49  4529A  31.8 °C  47.4 %   01:28 
 1057355  2026-05-07 01:24:13  4529C  27.4 °C  44.5 %   01:24 
 1057354  2026-05-07 01:22:38  89M1B  34.6 °C  64.8 %   01:22 
 1057353  2026-05-07 01:22:16  4529D  30.5 °C  78.1 %   01:22 

Data every 20 minute.